Location: Peebles
(55.6412°N, 3.1714°W)
Time: 17:16:36
(UTC+01:00)

USA 281 - Pass Details

Date: 02 February 2022
Orbit: 1070 x 1089 km, 106.0° (Epoch: 25 March)

Event Time Altitude Azimuth Distance (km) Brightness Sun altitude
Rises 06:14:25 0° 43° (NE) 3,902 6.7 -15.5°
Reaches altitude 10° 06:17:44 10° 27° (NNE) 2,946 5.7 -15.0°
Maximum altitude 06:22:01 19° 346° (NNW) 2,361 4.8 -14.4°
Enters shadow 06:25:24 13° 312° (NW) 2,740 4.8 -13.9°
